Year,Month,Day,Hour,Minute,Value (Times are PST for temperature in C)
2004,08,26,00,00,15.30
2004,08,26,00,01,15.30
2004,08,26,00,02,15.30
2004,08,26,00,03,15.30
2004,08,26,00,04,15.30
2004,08,26,00,05,15.30
2004,08,26,00,06,15.30
2004,08,26,00,07,15.30
2004,08,26,00,08,15.30
2004,08,26,00,09,15.30
2004,08,26,00,10,15.30
2004,08,26,00,11,15.30
2004,08,26,00,12,15.30
2004,08,26,00,13,15.30
2004,08,26,00,14,15.20
2004,08,26,00,15,15.20
2004,08,26,00,16,15.20
2004,08,26,00,17,15.10
2004,08,26,00,18,15.20
2004,08,26,00,19,15.20
2004,08,26,00,20,15.20
2004,08,26,00,21,15.20
2004,08,26,00,22,15.20
2004,08,26,00,23,15.20
2004,08,26,00,24,15.20
2004,08,26,00,25,15.20
2004,08,26,00,26,15.20
2004,08,26,00,27,15.20
2004,08,26,00,28,15.10
2004,08,26,00,29,15.10
2004,08,26,00,30,15.10
2004,08,26,00,31,15.10
2004,08,26,00,32,15.20
2004,08,26,00,33,15.20
2004,08,26,00,34,15.20
2004,08,26,00,35,15.20
2004,08,26,00,36,15.20
2004,08,26,00,37,15.10
2004,08,26,00,38,15.10
2004,08,26,00,39,15.10
2004,08,26,00,40,15.20
2004,08,26,00,41,15.20
2004,08,26,00,42,15.30
2004,08,26,00,43,15.30
2004,08,26,00,44,15.30
2004,08,26,00,45,15.30
2004,08,26,00,46,15.30
2004,08,26,00,47,15.30
2004,08,26,00,48,15.30
2004,08,26,00,49,15.30
2004,08,26,00,50,15.20
2004,08,26,00,51,15.20
2004,08,26,00,52,15.30
2004,08,26,00,53,15.30
2004,08,26,00,54,15.30
2004,08,26,00,55,15.30
2004,08,26,00,56,15.30
2004,08,26,00,57,15.30
2004,08,26,00,58,15.30
2004,08,26,00,59,15.30
2004,08,26,01,00,15.30
2004,08,26,01,01,15.30
2004,08,26,01,02,15.30
2004,08,26,01,03,15.20
2004,08,26,01,04,15.20
2004,08,26,01,05,15.20
2004,08,26,01,06,15.20
2004,08,26,01,07,15.30
2004,08,26,01,08,15.30
2004,08,26,01,09,15.30
2004,08,26,01,10,15.30
2004,08,26,01,11,15.30
2004,08,26,01,12,15.30
2004,08,26,01,13,15.30
2004,08,26,01,14,15.30
2004,08,26,01,15,15.20
2004,08,26,01,16,15.20
2004,08,26,01,17,15.20
2004,08,26,01,18,15.30
2004,08,26,01,19,15.30
2004,08,26,01,20,15.30
2004,08,26,01,21,15.30
2004,08,26,01,22,15.30
2004,08,26,01,23,15.30
2004,08,26,01,24,15.30
2004,08,26,01,25,15.30
2004,08,26,01,26,15.20
2004,08,26,01,27,15.20
2004,08,26,01,28,15.20
2004,08,26,01,29,15.20
2004,08,26,01,30,15.20
2004,08,26,01,31,15.20
2004,08,26,01,32,15.20
2004,08,26,01,33,15.20
2004,08,26,01,34,15.20
2004,08,26,01,35,15.20
2004,08,26,01,36,15.20
2004,08,26,01,37,15.20
2004,08,26,01,38,15.10
2004,08,26,01,39,15.10
2004,08,26,01,40,15.10
2004,08,26,01,41,15.10
2004,08,26,01,42,15.10
2004,08,26,01,43,15.10
2004,08,26,01,44,15.20
2004,08,26,01,45,15.20
2004,08,26,01,46,15.20
2004,08,26,01,47,15.20
2004,08,26,01,48,15.20
2004,08,26,01,49,15.20
2004,08,26,01,50,15.20
2004,08,26,01,51,15.20
2004,08,26,01,52,15.10
2004,08,26,01,53,15.20
2004,08,26,01,54,15.20
2004,08,26,01,55,15.20
2004,08,26,01,56,15.20
2004,08,26,01,57,15.20
2004,08,26,01,58,15.30
2004,08,26,01,59,15.30
2004,08,26,02,00,15.30
2004,08,26,02,01,15.30
2004,08,26,02,02,15.20
2004,08,26,02,03,15.20
2004,08,26,02,04,15.20
2004,08,26,02,05,15.20
2004,08,26,02,06,15.20
2004,08,26,02,07,15.20
2004,08,26,02,08,15.20
2004,08,26,02,09,15.20
2004,08,26,02,10,15.20
2004,08,26,02,11,15.30
2004,08,26,02,12,15.20
2004,08,26,02,13,15.20
2004,08,26,02,14,15.20
2004,08,26,02,15,15.20
2004,08,26,02,16,15.20
2004,08,26,02,17,15.20
2004,08,26,02,18,15.30
2004,08,26,02,19,15.30
2004,08,26,02,20,15.30
2004,08,26,02,21,15.30
2004,08,26,02,22,15.30
2004,08,26,02,23,15.30
2004,08,26,02,24,15.30
2004,08,26,02,25,15.30
2004,08,26,02,26,15.30
2004,08,26,02,27,15.30
2004,08,26,02,28,15.30
2004,08,26,02,29,15.30
2004,08,26,02,30,15.30
2004,08,26,02,31,15.30
2004,08,26,02,32,15.30
2004,08,26,02,33,15.30
2004,08,26,02,34,15.30
2004,08,26,02,35,15.30
2004,08,26,02,36,15.30
2004,08,26,02,37,15.30
2004,08,26,02,38,15.30
2004,08,26,02,39,15.30
2004,08,26,02,40,15.30
2004,08,26,02,41,15.30
2004,08,26,02,42,15.30
2004,08,26,02,43,15.30
2004,08,26,02,44,15.30
2004,08,26,02,45,15.30
2004,08,26,02,46,15.30
2004,08,26,02,47,15.30
2004,08,26,02,48,15.30
2004,08,26,02,49,15.30
2004,08,26,02,50,15.30
2004,08,26,02,51,15.30
2004,08,26,02,52,15.30
2004,08,26,02,53,15.30
2004,08,26,02,54,15.30
2004,08,26,02,55,15.30
2004,08,26,02,56,15.30
2004,08,26,02,57,15.30
2004,08,26,02,58,15.30
2004,08,26,02,59,15.30
2004,08,26,03,00,15.30
2004,08,26,03,01,15.30
2004,08,26,03,02,15.30
2004,08,26,03,03,15.30
2004,08,26,03,04,15.20
2004,08,26,03,05,15.20
2004,08,26,03,06,15.30
2004,08,26,03,07,15.30
2004,08,26,03,08,15.30
2004,08,26,03,09,15.30
2004,08,26,03,10,15.30
2004,08,26,03,11,15.30
2004,08,26,03,12,15.30
2004,08,26,03,13,15.30
2004,08,26,03,14,15.30
2004,08,26,03,15,15.30
2004,08,26,03,16,15.30
2004,08,26,03,17,15.30
2004,08,26,03,18,15.20
2004,08,26,03,19,15.20
2004,08,26,03,20,15.20
2004,08,26,03,21,15.20
2004,08,26,03,22,15.20
2004,08,26,03,23,15.10
2004,08,26,03,24,15.10
2004,08,26,03,25,15.10
2004,08,26,03,26,15.20
2004,08,26,03,27,15.20
2004,08,26,03,28,15.20
2004,08,26,03,29,15.10
2004,08,26,03,30,15.10
2004,08,26,03,31,15.00
2004,08,26,03,32,15.00
2004,08,26,03,33,15.10
2004,08,26,03,34,15.10
2004,08,26,03,35,15.10
2004,08,26,03,36,15.10
2004,08,26,03,37,15.10
2004,08,26,03,38,15.10
2004,08,26,03,39,15.10
2004,08,26,03,40,15.10
2004,08,26,03,41,15.10
2004,08,26,03,42,15.00
2004,08,26,03,43,15.00
2004,08,26,03,44,15.10
2004,08,26,03,45,15.10
2004,08,26,03,46,15.00
2004,08,26,03,47,15.00
2004,08,26,03,48,15.00
2004,08,26,03,49,15.00
2004,08,26,03,50,15.00
2004,08,26,03,51,15.00
2004,08,26,03,52,14.90
2004,08,26,03,53,14.90
2004,08,26,03,54,14.90
2004,08,26,03,55,14.90
2004,08,26,03,56,15.00
2004,08,26,03,57,15.00
2004,08,26,03,58,15.00
2004,08,26,03,59,15.10
2004,08,26,04,00,15.10
2004,08,26,04,01,15.10
2004,08,26,04,02,15.10
2004,08,26,04,03,15.20
2004,08,26,04,04,15.20
2004,08,26,04,05,15.20
2004,08,26,04,06,15.20
2004,08,26,04,07,15.20
2004,08,26,04,08,15.20
2004,08,26,04,09,15.20
2004,08,26,04,10,15.30
2004,08,26,04,11,15.30
2004,08,26,04,12,15.30
2004,08,26,04,13,15.30
2004,08,26,04,14,15.20
2004,08,26,04,15,15.20
2004,08,26,04,16,15.20
2004,08,26,04,17,15.10
2004,08,26,04,18,15.10
2004,08,26,04,19,15.00
2004,08,26,04,20,15.10
2004,08,26,04,21,15.10
2004,08,26,04,22,15.20
2004,08,26,04,23,15.20
2004,08,26,04,24,15.30
2004,08,26,04,25,15.30
2004,08,26,04,26,15.30
2004,08,26,04,27,15.30
2004,08,26,04,28,15.30
2004,08,26,04,29,15.30
2004,08,26,04,30,15.30
2004,08,26,04,31,15.20
2004,08,26,04,32,15.20
2004,08,26,04,33,15.20
2004,08,26,04,34,15.20
2004,08,26,04,35,15.30
2004,08,26,04,36,15.30
2004,08,26,04,37,15.30
2004,08,26,04,38,15.30
2004,08,26,04,39,15.30
2004,08,26,04,40,15.30
2004,08,26,04,41,15.30
2004,08,26,04,42,15.30
2004,08,26,04,43,15.20
2004,08,26,04,44,15.20
2004,08,26,04,45,15.20
2004,08,26,04,46,15.30
2004,08,26,04,47,15.30
2004,08,26,04,48,15.30
2004,08,26,04,49,15.30
2004,08,26,04,50,15.30
2004,08,26,04,51,15.30
2004,08,26,04,52,15.40
2004,08,26,04,53,15.40
2004,08,26,04,54,15.40
2004,08,26,04,55,15.40
2004,08,26,04,56,15.40
2004,08,26,04,57,15.40
2004,08,26,04,58,15.30
2004,08,26,04,59,15.30
2004,08,26,05,00,15.30
2004,08,26,05,01,15.40
2004,08,26,05,02,15.40
2004,08,26,05,03,15.40
2004,08,26,05,04,15.50
2004,08,26,05,05,15.50
2004,08,26,05,06,15.50
2004,08,26,05,07,15.50
2004,08,26,05,08,15.50
2004,08,26,05,09,15.40
2004,08,26,05,10,15.40
2004,08,26,05,11,15.40
2004,08,26,05,12,15.50
2004,08,26,05,13,15.50
2004,08,26,05,14,15.60
2004,08,26,05,15,15.60
2004,08,26,05,16,15.60
2004,08,26,05,17,15.70
2004,08,26,05,18,15.60
2004,08,26,05,19,15.60
2004,08,26,05,20,15.50
2004,08,26,05,21,15.40
2004,08,26,05,22,15.40
2004,08,26,05,23,15.40
2004,08,26,05,24,15.40
2004,08,26,05,25,15.40
2004,08,26,05,26,15.40
2004,08,26,05,27,15.40
2004,08,26,05,28,15.50
2004,08,26,05,29,15.50
2004,08,26,05,30,15.60
2004,08,26,05,31,15.60
2004,08,26,05,32,15.60
2004,08,26,05,33,15.60
2004,08,26,05,34,15.60
2004,08,26,05,35,15.50
2004,08,26,05,36,15.50
2004,08,26,05,37,15.50
2004,08,26,05,38,15.60
2004,08,26,05,39,15.60
2004,08,26,05,40,15.60
2004,08,26,05,41,15.70
2004,08,26,05,42,15.70
2004,08,26,05,43,15.70
2004,08,26,05,44,15.70
2004,08,26,05,45,15.70
2004,08,26,05,46,15.60
2004,08,26,05,47,15.60
2004,08,26,05,48,15.60
2004,08,26,05,49,15.70
2004,08,26,05,50,15.70
2004,08,26,05,51,15.60
2004,08,26,05,52,15.60
2004,08,26,05,53,15.60
2004,08,26,05,54,15.60
2004,08,26,05,55,15.60
2004,08,26,05,56,15.60
2004,08,26,05,57,15.60
2004,08,26,05,58,15.60
2004,08,26,05,59,15.60
2004,08,26,06,00,15.60
2004,08,26,06,01,15.60
2004,08,26,06,02,15.60
2004,08,26,06,03,15.70
2004,08,26,06,04,15.70
2004,08,26,06,05,15.80
2004,08,26,06,06,15.80
2004,08,26,06,07,15.80
2004,08,26,06,08,15.80
2004,08,26,06,09,15.80
2004,08,26,06,10,15.80
2004,08,26,06,11,15.80
2004,08,26,06,12,15.80
2004,08,26,06,13,15.80
2004,08,26,06,14,15.80
2004,08,26,06,15,15.80
2004,08,26,06,16,15.80
2004,08,26,06,17,15.80
2004,08,26,06,18,15.80
2004,08,26,06,19,15.90
2004,08,26,06,20,15.90
2004,08,26,06,21,15.90
2004,08,26,06,22,16.00
2004,08,26,06,23,15.90
2004,08,26,06,24,15.90
2004,08,26,06,25,15.80
2004,08,26,06,26,15.80
2004,08,26,06,27,15.80
2004,08,26,06,28,15.80
2004,08,26,06,29,15.80
2004,08,26,06,30,15.80
2004,08,26,06,31,15.70
2004,08,26,06,32,15.70
2004,08,26,06,33,15.70
2004,08,26,06,34,15.60
2004,08,26,06,35,15.60
2004,08,26,06,36,15.60
2004,08,26,06,37,15.50
2004,08,26,06,38,15.50
2004,08,26,06,39,15.50
2004,08,26,06,40,15.50
2004,08,26,06,41,15.60
2004,08,26,06,42,15.60
2004,08,26,06,43,15.60
2004,08,26,06,44,15.70
2004,08,26,06,45,15.70
2004,08,26,06,46,15.70
2004,08,26,06,47,15.60
2004,08,26,06,48,15.60
2004,08,26,06,49,15.60
2004,08,26,06,50,15.60
2004,08,26,06,51,15.60
2004,08,26,06,52,15.60
2004,08,26,06,53,15.60
2004,08,26,06,54,15.60
2004,08,26,06,55,15.60
2004,08,26,06,56,15.50
2004,08,26,06,57,15.50
2004,08,26,06,58,15.50
2004,08,26,06,59,15.50
2004,08,26,07,00,15.50
2004,08,26,07,01,15.50
2004,08,26,07,02,15.50
2004,08,26,07,03,15.50
2004,08,26,07,04,15.60
2004,08,26,07,05,15.60
2004,08,26,07,06,15.60
2004,08,26,07,07,15.70
2004,08,26,07,08,15.60
2004,08,26,07,09,15.70
2004,08,26,07,10,15.70
2004,08,26,07,11,15.70
2004,08,26,07,12,15.70
2004,08,26,07,13,15.70
2004,08,26,07,14,15.70
2004,08,26,07,15,15.70
2004,08,26,07,16,15.80
2004,08,26,07,17,15.80
2004,08,26,07,18,15.80
2004,08,26,07,19,15.90
2004,08,26,07,20,15.90
2004,08,26,07,21,16.00
2004,08,26,07,22,16.00
2004,08,26,07,23,15.90
2004,08,26,07,24,15.90
2004,08,26,07,25,15.90
2004,08,26,07,26,15.90
2004,08,26,07,27,15.90
2004,08,26,07,28,15.90
2004,08,26,07,29,16.00
2004,08,26,07,30,16.10
2004,08,26,07,31,16.10
2004,08,26,07,32,16.10
2004,08,26,07,33,16.10
2004,08,26,07,34,16.10
2004,08,26,07,35,16.10
2004,08,26,07,36,16.10
2004,08,26,07,37,16.10
2004,08,26,07,38,16.10
2004,08,26,07,39,16.10
2004,08,26,07,40,16.10
2004,08,26,07,41,16.10
2004,08,26,07,42,16.10
2004,08,26,07,43,16.00
2004,08,26,07,44,16.00
2004,08,26,07,45,16.00
2004,08,26,07,46,15.90
2004,08,26,07,47,15.90
2004,08,26,07,48,15.90
2004,08,26,07,49,15.80
2004,08,26,07,50,15.80
2004,08,26,07,51,15.80
2004,08,26,07,52,15.80
2004,08,26,07,53,15.90
2004,08,26,07,54,16.00
2004,08,26,07,55,16.10
2004,08,26,07,56,16.10
2004,08,26,07,57,16.20
2004,08,26,07,58,16.20
2004,08,26,07,59,16.20
2004,08,26,08,00,16.10
2004,08,26,08,01,16.10
2004,08,26,08,02,16.10
2004,08,26,08,03,16.10
2004,08,26,08,04,16.10
2004,08,26,08,05,16.10
2004,08,26,08,06,16.10
2004,08,26,08,07,16.10
2004,08,26,08,08,16.10
2004,08,26,08,09,16.10
2004,08,26,08,10,16.10
2004,08,26,08,11,16.00
2004,08,26,08,12,15.90
2004,08,26,08,13,15.80
2004,08,26,08,14,15.80
2004,08,26,08,15,15.80
2004,08,26,08,16,15.80
2004,08,26,08,17,15.80
2004,08,26,08,18,15.70
2004,08,26,08,19,15.80
2004,08,26,08,20,15.80
2004,08,26,08,21,15.80
2004,08,26,08,22,15.80
2004,08,26,08,23,15.80
2004,08,26,08,24,15.80
2004,08,26,08,25,15.80
2004,08,26,08,26,15.80
2004,08,26,08,27,15.80
2004,08,26,08,28,15.90
2004,08,26,08,29,16.00
2004,08,26,08,30,16.10
2004,08,26,08,31,16.10
2004,08,26,08,32,16.10
2004,08,26,08,33,16.10
2004,08,26,08,34,16.10
2004,08,26,08,35,16.10
2004,08,26,08,36,16.10
2004,08,26,08,37,16.10
2004,08,26,08,38,15.90
2004,08,26,08,39,16.00
2004,08,26,08,40,16.10
2004,08,26,08,41,16.10
2004,08,26,08,42,16.10
2004,08,26,08,43,16.20
2004,08,26,08,44,16.30
2004,08,26,08,45,16.40
2004,08,26,08,46,16.40
2004,08,26,08,47,16.40
2004,08,26,08,48,16.30
2004,08,26,08,49,16.20
2004,08,26,08,50,16.20
2004,08,26,08,51,16.10
2004,08,26,08,52,16.10
2004,08,26,08,53,16.10
2004,08,26,08,54,16.10
2004,08,26,08,55,16.10
2004,08,26,08,56,16.10
2004,08,26,08,57,16.10
2004,08,26,08,58,16.20
2004,08,26,08,59,16.10
2004,08,26,09,00,16.20
2004,08,26,09,01,16.10
2004,08,26,09,02,16.10
2004,08,26,09,03,16.10
2004,08,26,09,04,16.10
2004,08,26,09,05,16.10
2004,08,26,09,06,16.10
2004,08,26,09,07,16.10
2004,08,26,09,08,16.10
2004,08,26,09,09,16.20
2004,08,26,09,10,16.20
2004,08,26,09,11,16.30
2004,08,26,09,12,16.30
2004,08,26,09,13,16.40
2004,08,26,09,14,16.40
2004,08,26,09,15,16.40
2004,08,26,09,16,16.40
2004,08,26,09,17,16.40
2004,08,26,09,18,16.40
2004,08,26,09,19,16.40
2004,08,26,09,20,16.40
2004,08,26,09,21,16.30
2004,08,26,09,22,16.30
2004,08,26,09,23,16.30
2004,08,26,09,24,16.40
2004,08,26,09,25,16.40
2004,08,26,09,26,16.40
2004,08,26,09,27,16.40
2004,08,26,09,28,16.40
2004,08,26,09,29,16.40
2004,08,26,09,30,16.40
2004,08,26,09,31,16.40
2004,08,26,09,32,16.50
2004,08,26,09,33,16.70
2004,08,26,09,34,16.70
2004,08,26,09,35,16.80
2004,08,26,09,36,16.90
2004,08,26,09,37,16.90
2004,08,26,09,38,16.90
2004,08,26,09,39,16.90
2004,08,26,09,40,16.90
2004,08,26,09,41,16.90
2004,08,26,09,42,16.90
2004,08,26,09,43,17.00
2004,08,26,09,44,17.10
2004,08,26,09,45,17.10
2004,08,26,09,46,17.20
2004,08,26,09,47,17.20
2004,08,26,09,48,17.20
2004,08,26,09,49,17.20
2004,08,26,09,50,17.20
2004,08,26,09,51,17.10
2004,08,26,09,52,17.20
2004,08,26,09,53,17.30
2004,08,26,09,54,17.40
2004,08,26,09,55,17.50
2004,08,26,09,56,17.50
2004,08,26,09,57,17.60
2004,08,26,09,58,17.70
2004,08,26,09,59,17.70
2004,08,26,10,00,17.70
2004,08,26,10,01,17.70
2004,08,26,10,02,17.70
2004,08,26,10,03,17.60
2004,08,26,10,04,17.60
2004,08,26,10,05,17.50
2004,08,26,10,06,17.50
2004,08,26,10,07,17.40
2004,08,26,10,08,17.40
2004,08,26,10,09,17.40
2004,08,26,10,10,17.50
2004,08,26,10,11,17.50
2004,08,26,10,12,17.50
2004,08,26,10,13,17.70
2004,08,26,10,14,17.60
2004,08,26,10,15,17.50
2004,08,26,10,16,17.50
2004,08,26,10,17,17.40
2004,08,26,10,18,17.50
2004,08,26,10,19,17.50
2004,08,26,10,20,17.50
2004,08,26,10,21,17.50
2004,08,26,10,22,17.50
2004,08,26,10,23,17.40
2004,08,26,10,24,17.30
2004,08,26,10,25,17.30
2004,08,26,10,26,17.30
2004,08,26,10,27,17.40
2004,08,26,10,28,17.40
2004,08,26,10,29,17.40
2004,08,26,10,30,17.30
2004,08,26,10,31,17.30
2004,08,26,10,32,17.30
2004,08,26,10,33,17.30
2004,08,26,10,34,17.30
2004,08,26,10,35,17.30
2004,08,26,10,36,17.40
2004,08,26,10,37,17.50
2004,08,26,10,38,17.60
2004,08,26,10,39,17.60
2004,08,26,10,40,17.70
2004,08,26,10,41,17.70
2004,08,26,10,42,17.60
2004,08,26,10,43,17.70
2004,08,26,10,44,17.70
2004,08,26,10,45,17.80
2004,08,26,10,46,17.80
2004,08,26,10,47,17.90
2004,08,26,10,48,17.90
2004,08,26,10,49,18.00
2004,08,26,10,50,18.10
2004,08,26,10,51,18.20
2004,08,26,10,52,18.10
2004,08,26,10,53,18.00
2004,08,26,10,54,17.90
2004,08,26,10,55,17.80
2004,08,26,10,56,17.80
2004,08,26,10,57,17.90
2004,08,26,10,58,17.90
2004,08,26,10,59,17.90
2004,08,26,11,00,17.90
2004,08,26,11,01,18.00
2004,08,26,11,02,18.10
2004,08,26,11,03,18.10
2004,08,26,11,04,18.20
2004,08,26,11,05,18.20
2004,08,26,11,06,18.20
2004,08,26,11,07,18.20
2004,08,26,11,08,18.20
2004,08,26,11,09,18.20
2004,08,26,11,10,18.30
2004,08,26,11,11,18.50
2004,08,26,11,12,18.70
2004,08,26,11,13,18.80
2004,08,26,11,14,19.00
2004,08,26,11,15,19.10
2004,08,26,11,16,19.10
2004,08,26,11,17,19.10
2004,08,26,11,18,19.10
2004,08,26,11,19,19.20
2004,08,26,11,20,19.40
2004,08,26,11,21,19.40
2004,08,26,11,22,19.40
2004,08,26,11,23,19.40
2004,08,26,11,24,19.40
2004,08,26,11,25,19.60
2004,08,26,11,26,19.70
2004,08,26,11,27,19.80
2004,08,26,11,28,19.90
2004,08,26,11,29,19.90
2004,08,26,11,30,19.90
2004,08,26,11,31,19.90
2004,08,26,11,32,19.90
2004,08,26,11,33,20.00
2004,08,26,11,34,20.10
2004,08,26,11,35,20.20
2004,08,26,11,36,20.30
2004,08,26,11,37,20.40
2004,08,26,11,38,20.50
2004,08,26,11,39,20.50
2004,08,26,11,40,20.50
2004,08,26,11,41,20.50
2004,08,26,11,42,20.50
2004,08,26,11,43,20.60
2004,08,26,11,44,20.60
2004,08,26,11,45,20.70
2004,08,26,11,46,20.80
2004,08,26,11,47,20.70
2004,08,26,11,48,20.60
2004,08,26,11,49,20.60
2004,08,26,11,50,20.70
2004,08,26,11,51,20.70
2004,08,26,11,52,20.80
2004,08,26,11,53,20.60
2004,08,26,11,54,20.50
2004,08,26,11,55,20.50
2004,08,26,11,56,20.60
2004,08,26,11,57,20.60
2004,08,26,11,58,20.60
2004,08,26,11,59,20.70
2004,08,26,12,00,20.60
2004,08,26,12,01,20.50
2004,08,26,12,02,20.50
2004,08,26,12,03,20.40
2004,08,26,12,04,20.40
2004,08,26,12,05,20.30
2004,08,26,12,06,20.20
2004,08,26,12,07,20.30
2004,08,26,12,08,20.40
2004,08,26,12,09,20.50
2004,08,26,12,10,20.40
2004,08,26,12,11,20.20
2004,08,26,12,12,20.20
2004,08,26,12,13,20.20
2004,08,26,12,14,20.30
2004,08,26,12,15,20.40
2004,08,26,12,16,20.50
2004,08,26,12,17,20.60
2004,08,26,12,18,20.70
2004,08,26,12,19,20.50
2004,08,26,12,20,20.20
2004,08,26,12,21,20.10
2004,08,26,12,22,20.00
2004,08,26,12,23,19.90
2004,08,26,12,24,19.80
2004,08,26,12,25,19.60
2004,08,26,12,26,19.60
2004,08,26,12,27,19.20
2004,08,26,12,28,18.70
2004,08,26,12,29,18.40
2004,08,26,12,30,18.30
2004,08,26,12,31,18.10
2004,08,26,12,32,17.90
2004,08,26,12,33,17.80
2004,08,26,12,34,17.70
2004,08,26,12,35,17.60
2004,08,26,12,36,17.50
2004,08,26,12,37,17.40
2004,08,26,12,38,17.30
2004,08,26,12,39,17.20
2004,08,26,12,40,17.30
2004,08,26,12,41,17.30
2004,08,26,12,42,17.40
2004,08,26,12,43,17.50
2004,08,26,12,44,17.70
2004,08,26,12,45,17.70
2004,08,26,12,46,17.80
2004,08,26,12,47,17.80
2004,08,26,12,48,17.90
2004,08,26,12,49,18.00
2004,08,26,12,50,18.10
2004,08,26,12,51,18.20
2004,08,26,12,52,18.20
2004,08,26,12,53,18.20
2004,08,26,12,54,18.30
2004,08,26,12,55,18.30
2004,08,26,12,56,18.30
2004,08,26,12,57,18.30
2004,08,26,12,58,18.40
2004,08,26,12,59,18.50
2004,08,26,13,00,18.50
2004,08,26,13,01,18.50
2004,08,26,13,02,18.60
2004,08,26,13,03,18.70
2004,08,26,13,04,18.80
2004,08,26,13,05,18.80
2004,08,26,13,06,18.90
2004,08,26,13,07,19.00
2004,08,26,13,08,18.90
2004,08,26,13,09,18.90
2004,08,26,13,10,18.90
2004,08,26,13,11,18.90
2004,08,26,13,12,19.00
2004,08,26,13,13,18.90
2004,08,26,13,14,18.90
2004,08,26,13,15,18.90
2004,08,26,13,16,18.90
2004,08,26,13,17,18.80
2004,08,26,13,18,18.70
2004,08,26,13,19,18.60
2004,08,26,13,20,18.60
2004,08,26,13,21,18.60
2004,08,26,13,22,18.60
2004,08,26,13,23,18.70
2004,08,26,13,24,18.70
2004,08,26,13,25,18.60
2004,08,26,13,26,18.70
2004,08,26,13,27,18.60
2004,08,26,13,28,18.70
2004,08,26,13,29,18.60
2004,08,26,13,30,18.60
2004,08,26,13,31,18.60
2004,08,26,13,32,18.50
2004,08,26,13,33,18.60
2004,08,26,13,34,18.60
2004,08,26,13,35,18.60
2004,08,26,13,36,18.70
2004,08,26,13,37,18.70
2004,08,26,13,38,18.80
2004,08,26,13,39,18.90
2004,08,26,13,40,18.90
2004,08,26,13,41,18.90
2004,08,26,13,42,18.90
2004,08,26,13,43,18.90
2004,08,26,13,44,18.90
2004,08,26,13,45,18.90
2004,08,26,13,46,18.90
2004,08,26,13,47,18.80
2004,08,26,13,48,18.90
2004,08,26,13,49,18.90
2004,08,26,13,50,18.90
2004,08,26,13,51,19.00
2004,08,26,13,52,19.10
2004,08,26,13,53,19.30
2004,08,26,13,54,19.40
2004,08,26,13,55,19.60
2004,08,26,13,56,19.80
2004,08,26,13,57,19.90
2004,08,26,13,58,19.80
2004,08,26,13,59,19.60
2004,08,26,14,00,19.50
2004,08,26,14,01,19.40
2004,08,26,14,02,19.30
2004,08,26,14,03,19.20
2004,08,26,14,04,19.40
2004,08,26,14,05,19.40
2004,08,26,14,06,19.50
2004,08,26,14,07,19.70
2004,08,26,14,08,19.80
2004,08,26,14,09,19.90
2004,08,26,14,10,20.00
2004,08,26,14,11,19.90
2004,08,26,14,12,19.80
2004,08,26,14,13,19.90
2004,08,26,14,14,19.90
2004,08,26,14,15,19.90
2004,08,26,14,16,19.80
2004,08,26,14,17,19.80
2004,08,26,14,18,19.80
2004,08,26,14,19,19.60
2004,08,26,14,20,19.40
2004,08,26,14,21,19.30
2004,08,26,14,22,19.20
2004,08,26,14,23,19.20
2004,08,26,14,24,19.30
2004,08,26,14,25,19.40
2004,08,26,14,26,19.60
2004,08,26,14,27,19.70
2004,08,26,14,28,19.60
2004,08,26,14,29,19.60
2004,08,26,14,30,19.80
2004,08,26,14,31,20.00
2004,08,26,14,32,20.20
2004,08,26,14,33,20.50
2004,08,26,14,34,20.80
2004,08,26,14,35,21.00
2004,08,26,14,36,21.00
2004,08,26,14,37,21.10
2004,08,26,14,38,21.00
2004,08,26,14,39,21.10
2004,08,26,14,40,21.30
2004,08,26,14,41,21.40
2004,08,26,14,42,21.50
2004,08,26,14,43,21.40
2004,08,26,14,44,21.30
2004,08,26,14,45,21.10
2004,08,26,14,46,21.10
2004,08,26,14,47,20.90
2004,08,26,14,48,21.00
2004,08,26,14,49,20.90
2004,08,26,14,50,20.90
2004,08,26,14,51,20.90
2004,08,26,14,52,20.90
2004,08,26,14,53,20.80
2004,08,26,14,54,20.80
2004,08,26,14,55,20.60
2004,08,26,14,56,20.60
2004,08,26,14,57,20.60
2004,08,26,14,58,20.30
2004,08,26,14,59,20.10
2004,08,26,15,00,19.90
2004,08,26,15,01,19.80
2004,08,26,15,02,19.80
2004,08,26,15,03,19.80
2004,08,26,15,04,19.90
2004,08,26,15,05,19.80
2004,08,26,15,06,19.80
2004,08,26,15,07,19.90
2004,08,26,15,08,19.90
2004,08,26,15,09,19.90
2004,08,26,15,10,19.90
2004,08,26,15,11,19.90
2004,08,26,15,12,19.90
2004,08,26,15,13,19.90
2004,08,26,15,14,19.90
2004,08,26,15,15,19.90
2004,08,26,15,16,20.20
2004,08,26,15,17,20.20
2004,08,26,15,18,20.20
2004,08,26,15,19,20.40
2004,08,26,15,20,20.30
2004,08,26,15,21,20.40
2004,08,26,15,22,20.30
2004,08,26,15,23,20.40
2004,08,26,15,24,20.60
2004,08,26,15,25,20.60
2004,08,26,15,26,20.70
2004,08,26,15,27,20.60
2004,08,26,15,28,20.60
2004,08,26,15,29,20.60
2004,08,26,15,30,20.50
2004,08,26,15,31,20.40
2004,08,26,15,32,20.20
2004,08,26,15,33,20.00
2004,08,26,15,34,19.90
2004,08,26,15,35,19.90
2004,08,26,15,36,19.90
2004,08,26,15,37,19.80
2004,08,26,15,38,19.90
2004,08,26,15,39,20.00
2004,08,26,15,40,20.10
2004,08,26,15,41,20.20
2004,08,26,15,42,20.20
2004,08,26,15,43,20.30
2004,08,26,15,44,20.40
2004,08,26,15,45,20.30
2004,08,26,15,46,20.20
2004,08,26,15,47,20.20
2004,08,26,15,48,20.10
2004,08,26,15,49,20.10
2004,08,26,15,50,20.10
2004,08,26,15,51,20.20
2004,08,26,15,52,20.20
2004,08,26,15,53,20.00
2004,08,26,15,54,20.00
2004,08,26,15,55,20.10
2004,08,26,15,56,20.20
2004,08,26,15,57,20.20
2004,08,26,15,58,20.20
2004,08,26,15,59,20.20
2004,08,26,16,00,20.30
2004,08,26,16,01,20.30
2004,08,26,16,02,20.30
2004,08,26,16,03,20.30
2004,08,26,16,04,20.30
2004,08,26,16,05,20.30
2004,08,26,16,06,20.30
2004,08,26,16,07,20.20
2004,08,26,16,08,20.40
2004,08,26,16,09,20.50
2004,08,26,16,10,20.50
2004,08,26,16,11,20.60
2004,08,26,16,12,20.50
2004,08,26,16,13,20.50
2004,08,26,16,14,20.60
2004,08,26,16,15,20.60
2004,08,26,16,16,20.40
2004,08,26,16,17,20.30
2004,08,26,16,18,20.10
2004,08,26,16,19,20.20
2004,08,26,16,20,20.20
2004,08,26,16,21,20.20
2004,08,26,16,22,20.10
2004,08,26,16,23,20.00
2004,08,26,16,24,19.70
2004,08,26,16,25,19.60
2004,08,26,16,26,19.50
2004,08,26,16,27,19.30
2004,08,26,16,28,19.20
2004,08,26,16,29,19.10
2004,08,26,16,30,18.80
2004,08,26,16,31,18.60
2004,08,26,16,32,18.50
2004,08,26,16,33,18.50
2004,08,26,16,34,18.50
2004,08,26,16,35,18.50
2004,08,26,16,36,18.50
2004,08,26,16,37,18.50
2004,08,26,16,38,18.30
2004,08,26,16,39,18.40
2004,08,26,16,40,18.40
2004,08,26,16,41,18.40
2004,08,26,16,42,18.40
2004,08,26,16,43,18.50
2004,08,26,16,44,18.50
2004,08,26,16,45,18.50
2004,08,26,16,46,18.60
2004,08,26,16,47,18.70
2004,08,26,16,48,18.70
2004,08,26,16,49,18.60
2004,08,26,16,50,18.60
2004,08,26,16,51,18.60
2004,08,26,16,52,18.60
2004,08,26,16,53,18.80
2004,08,26,16,54,18.80
2004,08,26,16,55,18.70
2004,08,26,16,56,18.70
2004,08,26,16,57,18.70
2004,08,26,16,58,18.60
2004,08,26,16,59,18.60
2004,08,26,17,00,18.60
2004,08,26,17,01,18.70
2004,08,26,17,02,18.80
2004,08,26,17,03,18.80
2004,08,26,17,04,18.70
2004,08,26,17,05,18.70
2004,08,26,17,06,18.70
2004,08,26,17,07,18.70
2004,08,26,17,08,18.80
2004,08,26,17,09,18.90
2004,08,26,17,10,18.90
2004,08,26,17,11,18.90
2004,08,26,17,12,18.90
2004,08,26,17,13,18.90
2004,08,26,17,14,18.90
2004,08,26,17,15,18.90
2004,08,26,17,16,19.20
2004,08,26,17,17,19.30
2004,08,26,17,18,19.20
2004,08,26,17,19,19.10